Weather History for KFHU - February, 2014

Change the Weather History Date:

Tuesday, February 18, 2014

  Actual Average Record
Temperature  
Mean Temperature 63 °F -  
Max Temperature 78 °F 60 °F 78 °F (2014)
Min Temperature 48 °F 40 °F 24 °F (1990)
Degree Days  
Heating Degree Days 2    
Growing Degree Days 13 (Base 50)    
Moisture  
Dew Point 13 °F    
Average Humidity 15    
Maximum Humidity 27    
Minimum Humidity 6    
Precipitation  
Precipitation 0.00 in - - ()
Sea Level Pressure  
Sea Level Pressure 29.95 in    
Wind  
Wind Speed 7 mph (WSW)    
Max Wind Speed 18 mph    
Max Gust Speed 26 mph    
Visibility 10 miles    
Events      
Averages and records for this station are not official NWS values.
T = Trace of Precipitation, MM = Missing Value Source: NWS Daily Summary

Daily Weather History Graph

Daily Weather History Graph

Search for Another Location

Airport or City:

Trip Planner

Search our weather history database for the weather conditions in past years. The results will help you decide how hot, cold, wet, or windy it might be!

Date:

Astronomy

Feb. 18, 2014 Rise Set
Actual Time 7:00 AM MST 6:10 PM MST
Civil Twilight 6:35 AM MST 6:35 PM MST
Nautical Twilight 6:06 AM MST 7:04 PM MST
Astronomical Twilight 5:38 AM MST 7:32 PM MST
Moon 9:49 PM MST (2/18) 8:50 AM MST (2/18)
Length of Visible Light 12h 00m
Length of Day
11h 10m
Waning Gibbous, 87% of the Moon is Illuminated
Feb 18
Waning Gibbous
Feb 22
Last Quarter
Mar 1
New
Mar 8
First Quarter
Mar 16
Full

Hourly Weather History & Observations

Time (MST) Temp. Dew Point Humidity Pressure Visibility Wind Dir Wind Speed Gust Speed Precip Events Conditions
12:55 AM 60.8 °F 15.8 °F 17% 29.98 in 10.0 mi SW 4.6 mph - N/A   Partly Cloudy
1:55 AM 55.4 °F 15.8 °F 21% 29.97 in 10.0 mi Calm Calm - N/A   Partly Cloudy
2:55 AM 51.8 °F 15.8 °F 24% 29.95 in 10.0 mi WSW 5.8 mph - N/A   Scattered Clouds
3:55 AM 51.8 °F 15.8 °F 24% 29.95 in 10.0 mi SE 5.8 mph - N/A   Partly Cloudy
4:55 AM 51.8 °F 15.8 °F 24% 29.94 in 10.0 mi SE 3.5 mph - N/A   Scattered Clouds
5:55 AM 48.2 °F 15.8 °F 27% 29.97 in 10.0 mi South 6.9 mph - N/A   Scattered Clouds
6:55 AM 50.0 °F 15.8 °F 26% 30.00 in 10.0 mi NW 3.5 mph - N/A   Partly Cloudy
7:55 AM 55.4 °F 15.8 °F 21% 30.01 in 10.0 mi Calm Calm - N/A   Partly Cloudy
8:55 AM 62.6 °F 14.0 °F 15% 30.00 in 10.0 mi East 5.8 mph - N/A   Partly Cloudy
9:55 AM 66.2 °F 12.2 °F 12% 29.99 in 10.0 mi North 3.5 mph - N/A   Mostly Cloudy
10:55 AM 69.8 °F 14.0 °F 12% 29.99 in 10.0 mi Variable 4.6 mph - N/A   Mostly Cloudy
11:55 AM 73.4 °F 12.2 °F 10% 29.96 in 10.0 mi Variable 5.8 mph - N/A   Mostly Cloudy
12:55 PM 75.2 °F 8.6 °F 8% 29.93 in 10.0 mi WNW 13.8 mph 19.6 mph N/A   Mostly Cloudy
1:55 PM 77.0 °F 10.4 °F 8% 29.90 in 10.0 mi West 16.1 mph 23.0 mph N/A   Mostly Cloudy
2:55 PM 78.8 °F 10.4 °F 7% 29.89 in 10.0 mi West 18.4 mph 26.5 mph N/A   Mostly Cloudy
3:55 PM 77.0 °F 5.0 °F 6% 29.89 in 10.0 mi WSW 18.4 mph 26.5 mph N/A   Mostly Cloudy
4:55 PM 75.2 °F 10.4 °F 8% 29.89 in 10.0 mi WSW 18.4 mph - N/A   Mostly Cloudy
5:55 PM 71.6 °F 10.4 °F 9% 29.92 in 10.0 mi West 12.7 mph - N/A   Mostly Cloudy
6:55 PM 64.4 °F 12.2 °F 13% 29.95 in 10.0 mi WSW 12.7 mph - N/A   Mostly Cloudy
7:55 PM 64.4 °F 10.4 °F 12% 29.95 in 10.0 mi WSW 11.5 mph - N/A   Mostly Cloudy
8:55 PM 62.6 °F 10.4 °F 13% 29.94 in 10.0 mi WSW 15.0 mph - N/A   Mostly Cloudy
9:55 PM 59.0 °F 10.4 °F 15% 29.94 in 10.0 mi WSW 15.0 mph - N/A   Mostly Cloudy
10:55 PM 59.0 °F 10.4 °F 15% 29.93 in 10.0 mi WSW 13.8 mph - N/A   Mostly Cloudy
11:55 PM 59.0 °F 14.0 °F 17% 29.91 in 10.0 mi WSW 13.8 mph - N/A   Overcast